| time (UTC) | temp C | wind direction | speed KPH | gust KPH | rain 1hr cm | rain 24hr cm | rain mn cm | humidity % | barometer mb |
| 20260504151027 | 17 | 360 | 1.6 | 12.9 | 0.00 | 0.00 | 0.00 | 65 | 1009.4 |
| 20260504150525 | 17 | 360 | 0.0 | 4.8 | 0.00 | 0.00 | 0.00 | 63 | 1009.4 |
| 20260504141010 | 16 | 360 | 0.0 | 1.6 | 0.00 | 0.00 | 0.00 | 67 | 1009.5 |
| 20260504140508 | 16 | 360 | 0.0 | 3.2 | 0.00 | 0.00 | 0.00 | 67 | 1009.4 |
| 20260504130554 | 14 | 360 | 0.0 | 4.8 | 0.00 | 0.00 | 0.00 | 65 | 1010.0 |
| 20260504110518 | 9 | 360 | 0.0 | 0.0 | 0.00 | 0.00 | 0.00 | 74 | 1010.1 |
| 20260504100510 | 8 | 360 | 0.0 | 0.0 | 0.00 | 0.00 | 0.00 | 73 | 1010.4 |
| 20260504082001 | 8 | 360 | 0.0 | 0.0 | 0.00 | 0.00 | 0.00 | 75 | 1011.5 |
| 20260504081600 | 8 | 360 | 0.0 | 0.0 | 0.00 | 0.00 | 0.00 | 75 | 1011.5 |
| 20260504081100 | 8 | 360 | 0.0 | 0.0 | 0.00 | 0.00 | 0.00 | 75 | 1011.6 |
| 20260504080559 | 8 | 360 | 0.0 | 0.0 | 0.00 | 0.00 | 0.00 | 75 | 1011.6 |
| 20260504050537 | 10 | 360 | 0.0 | 0.0 | 0.00 | 0.00 | 0.00 | 70 | 1013.6 |
| 20260504045535 | 10 | 360 | 0.0 | 0.0 | 0.00 | 0.00 | 0.00 | 70 | 1013.7 |
| 20260504045035 | 10 | 360 | 0.0 | 0.0 | 0.00 | 0.00 | 0.00 | 69 | 1013.8 |
| 20260504044540 | 10 | 360 | 0.0 | 0.0 | 0.00 | 0.00 | 0.00 | 70 | 1013.7 |
| 20260504044034 | 10 | 360 | 0.0 | 0.0 | 0.00 | 0.00 | 0.00 | 70 | 1013.8 |
| 20260504043534 | 10 | 360 | 0.0 | 0.0 | 0.00 | 0.00 | 0.00 | 70 | 1013.9 |
| 20260504043034 | 10 | 360 | 0.0 | 0.0 | 0.00 | 0.00 | 0.00 | 70 | 1013.9 |
| 20260504042533 | 10 | 360 | 0.0 | 0.0 | 0.00 | 0.00 | 0.00 | 70 | 1013.9 |
| 20260504042035 | 10 | 360 | 0.0 | 0.0 | 0.00 | 0.00 | 0.00 | 70 | 1014.0 |
| 20260504041532 | 10 | 360 | 0.0 | 0.0 | 0.00 | 0.00 | 0.00 | 71 | 1014.0 |
| 20260504041031 | 10 | 360 | 0.0 | 0.0 | 0.00 | 0.00 | 0.00 | 71 | 1014.0 |
| 20260504040530 | 10 | 360 | 0.0 | 0.0 | 0.00 | 0.00 | 0.00 | 71 | 1014.1 |
| 20260504040029 | 9 | 360 | 0.0 | 0.0 | 0.00 | 0.00 | 0.00 | 72 | 1014.1 |
| 20260504035530 | 9 | 360 | 0.0 | 1.6 | 0.00 | 0.00 | 0.00 | 72 | 1014.0 |
| 20260504035028 | 9 | 360 | 0.0 | 1.6 | 0.00 | 0.00 | 0.00 | 73 | 1014.1 |
| 20260504034529 | 9 | 360 | 0.0 | 0.0 | 0.00 | 0.00 | 0.00 | 73 | 1014.1 |
| 20260504034027 | 9 | 360 | 0.0 | 3.2 | 0.00 | 0.00 | 0.00 | 74 | 1014.2 |
| 20260504033529 | 9 | 360 | 0.0 | 3.2 | 0.00 | 0.00 | 0.00 | 74 | 1014.3 |
| 20260504033026 | 9 | 360 | 0.0 | 0.0 | 0.00 | 0.00 | 0.00 | 75 | 1014.3 |
| 20260504032526 | 9 | 360 | 0.0 | 4.8 | 0.00 | 0.00 | 0.00 | 77 | 1014.4 |
| 20260504032026 | 8 | 360 | 0.0 | 4.8 | 0.00 | 0.00 | 0.00 | 77 | 1014.4 |
| 20260504031525 | 8 | 360 | 0.0 | 0.0 | 0.00 | 0.00 | 0.00 | 78 | 1014.5 |
| 20260504031025 | 8 | 360 | 0.0 | 0.0 | 0.00 | 0.00 | 0.00 | 79 | 1014.5 |
| 20260504030524 | 8 | 360 | 0.0 | 0.0 | 0.00 | 0.00 | 0.00 | 79 | 1014.5 |
| 20260504030036 | 8 | 360 | 0.0 | 0.0 | 0.00 | 0.00 | 0.00 | 79 | 1014.7 |
| 20260504025524 | 8 | 360 | 0.0 | 1.6 | 0.00 | 0.00 | 0.00 | 79 | 1014.7 |
| 20260504025024 | 8 | 360 | 0.0 | 1.6 | 0.00 | 0.00 | 0.00 | 78 | 1014.7 |
| 20260504024524 | 8 | 360 | 0.0 | 1.6 | 0.00 | 0.00 | 0.00 | 78 | 1014.8 |
| 20260504024026 | 8 | 360 | 0.0 | 3.2 | 0.00 | 0.00 | 0.00 | 79 | 1014.7 |
| 20260504023523 | 8 | 360 | 0.0 | 0.0 | 0.00 | 0.00 | 0.00 | 79 | 1014.7 |
| 20260504023023 | 8 | 360 | 0.0 | 4.8 | 0.00 | 0.00 | 0.00 | 79 | 1014.7 |
| 20260504022523 | 8 | 360 | 0.0 | 4.8 | 0.00 | 0.00 | 0.00 | 80 | 1014.8 |
| 20260504022025 | 8 | 360 | 0.0 | 0.0 | 0.00 | 0.00 | 0.00 | 80 | 1014.9 |
| 20260504021527 | 8 | 360 | 0.0 | 0.0 | 0.00 | 0.00 | 0.00 | 80 | 1014.8 |
| 20260504021021 | 8 | 360 | 0.0 | 0.0 | 0.00 | 0.00 | 0.00 | 80 | 1015.0 |
| 20260504020521 | 8 | 360 | 0.0 | 0.0 | 0.00 | 0.00 | 0.00 | 81 | 1015.0 |
| 20260504020021 | 8 | 360 | 0.0 | 0.0 | 0.00 | 0.00 | 0.00 | 80 | 1015.0 |
| 20260504015521 | 8 | 360 | 0.0 | 0.0 | 0.00 | 0.00 | 0.00 | 80 | 1015.1 |
| 20260504015025 | 8 | 360 | 0.0 | 0.0 | 0.00 | 0.00 | 0.00 | 80 | 1015.0 |
| 20260504014521 | 8 | 360 | 0.0 | 0.0 | 0.00 | 0.00 | 0.00 | 79 | 1015.0 |
| 20260504014024 | 8 | 360 | 0.0 | 0.0 | 0.00 | 0.00 | 0.00 | 79 | 1015.0 |
| 20260504013523 | 8 | 360 | 0.0 | 1.6 | 0.00 | 0.00 | 0.00 | 79 | 1015.0 |
| 20260504013020 | 8 | 360 | 0.0 | 3.2 | 0.00 | 0.00 | 0.00 | 79 | 1014.9 |
| 20260504012520 | 8 | 360 | 0.0 | 3.2 | 0.00 | 0.00 | 0.00 | 79 | 1014.9 |
| 20260504012020 | 8 | 360 | 0.0 | 0.0 | 0.00 | 0.00 | 0.00 | 79 | 1015.0 |
| 20260504011519 | 8 | 360 | 0.0 | 0.0 | 0.00 | 0.00 | 0.00 | 78 | 1015.0 |
| 20260504011018 | 8 | 360 | 0.0 | 4.8 | 0.00 | 0.00 | 0.00 | 78 | 1014.8 |
| 20260504010518 | 8 | 360 | 0.0 | 4.8 | 0.00 | 0.00 | 0.00 | 78 | 1014.8 |
| 20260504010018 | 8 | 360 | 0.0 | 1.6 | 0.00 | 0.00 | 0.00 | 78 | 1014.9 |
| 20260504005520 | 8 | 360 | 0.0 | 1.6 | 0.00 | 0.00 | 0.00 | 78 | 1014.9 |
| 20260504005018 | 8 | 360 | 0.0 | 0.0 | 0.00 | 0.00 | 0.00 | 78 | 1014.9 |
| 20260504004522 | 8 | 360 | 0.0 | 0.0 | 0.00 | 0.00 | 0.00 | 78 | 1014.9 |
| 20260504004017 | 8 | 360 | 0.0 | 0.0 | 0.00 | 0.00 | 0.00 | 78 | 1014.8 |
| 20260504003518 | 8 | 360 | 0.0 | 0.0 | 0.00 | 0.00 | 0.00 | 78 | 1014.8 |
| 20260504003017 | 8 | 360 | 0.0 | 0.0 | 0.00 | 0.00 | 0.00 | 78 | 1014.8 |
| 20260504002516 | 8 | 360 | 0.0 | 0.0 | 0.00 | 0.00 | 0.00 | 78 | 1014.9 |
| 20260504002016 | 8 | 360 | 0.0 | 0.0 | 0.00 | 0.00 | 0.00 | 78 | 1015.0 |
| 20260504001516 | 8 | 360 | 0.0 | 0.0 | 0.00 | 0.00 | 0.00 | 78 | 1015.0 |
| 20260504001016 | 8 | 360 | 0.0 | 0.0 | 0.00 | 0.00 | 0.00 | 78 | 1015.0 |
| 20260504000515 | 8 | 360 | 0.0 | 0.0 | 0.00 | 0.00 | 0.00 | 78 | 1014.9 |
| 20260504000014 | 8 | 360 | 0.0 | 0.0 | 0.00 | 0.00 | 0.00 | 77 | 1015.1 |
| 20260503235513 | 8 | 360 | 0.0 | 0.0 | 0.00 | 0.00 | 0.00 | 77 | 1015.3 |
| 20260503235013 | 8 | 360 | 0.0 | 0.0 | 0.00 | 0.00 | 0.00 | 77 | 1015.3 |
| 20260503234525 | 8 | 360 | 0.0 | 0.0 | 0.00 | 0.00 | 0.00 | 77 | 1015.2 |
| 20260503234015 | 8 | 360 | 0.0 | 0.0 | 0.00 | 0.00 | 0.00 | 77 | 1015.2 |
| 20260503233513 | 8 | 360 | 0.0 | 0.0 | 0.00 | 0.00 | 0.00 | 76 | 1015.3 |
| 20260503233011 | 8 | 360 | 0.0 | 0.0 | 0.00 | 0.00 | 0.00 | 76 | 1015.4 |
| 20260503232511 | 8 | 360 | 0.0 | 1.6 | 0.00 | 0.00 | 0.00 | 75 | 1015.7 |
| 20260503232010 | 8 | 360 | 0.0 | 1.6 | 0.00 | 0.00 | 0.00 | 75 | 1015.8 |
| 20260503231510 | 9 | 360 | 0.0 | 14.5 | 0.00 | 0.00 | 0.00 | 74 | 1016.0 |
| 20260503231015 | 9 | 360 | 0.0 | 17.7 | 0.00 | 0.00 | 0.00 | 74 | 1016.3 |
| 20260503230515 | 9 | 360 | 1.6 | 25.7 | 0.00 | 0.00 | 0.00 | 73 | 1016.5 |
| 20260503230010 | 10 | 360 | 14.5 | 33.8 | 0.00 | 0.00 | 0.00 | 71 | 1016.5 |
| 20260503225512 | 10 | 360 | 17.7 | 33.8 | 0.00 | 0.00 | 0.00 | 69 | 1016.4 |
| 20260503225009 | 10 | 360 | 14.5 | 35.4 | 0.00 | 0.00 | 0.00 | 67 | 1016.4 |
| 20260503224512 | 10 | 360 | 17.7 | 30.6 | 0.00 | 0.00 | 0.00 | 66 | 1016.3 |
| 20260503224007 | 10 | 360 | 17.7 | 37.0 | 0.00 | 0.00 | 0.00 | 65 | 1016.3 |
| 20260503223505 | 10 | 360 | 19.3 | 37.0 | 0.00 | 0.00 | 0.00 | 64 | 1016.4 |
| 20260503223004 | 11 | 360 | 16.1 | 29.0 | 0.00 | 0.00 | 0.00 | 61 | 1016.4 |
| 20260503222503 | 11 | 360 | 16.1 | 41.8 | 0.00 | 0.00 | 0.00 | 59 | 1016.3 |
| 20260503222002 | 12 | 360 | 17.7 | 33.8 | 0.00 | 0.00 | 0.00 | 56 | 1016.1 |
| 20260503221501 | 12 | 360 | 14.5 | 37.0 | 0.00 | 0.00 | 0.00 | 55 | 1016.1 |
| 20260503221100 | 12 | 360 | 20.9 | 37.0 | 0.00 | 0.00 | 0.00 | 52 | 1016.0 |
| 20260503220559 | 13 | 360 | 19.3 | 30.6 | 0.00 | 0.00 | 0.00 | 49 | 1015.8 |
| 20260503220104 | 13 | 360 | 11.3 | 29.0 | 0.00 | 0.00 | 0.00 | 44 | 1015.7 |
| 20260503215556 | 13 | 360 | 0.0 | 17.7 | 0.00 | 0.00 | 0.00 | 44 | 1015.7 |
| 20260503215056 | 13 | 360 | 0.0 | 20.9 | 0.00 | 0.00 | 0.00 | 47 | 1015.6 |
| 20260503214557 | 13 | 360 | 3.2 | 29.0 | 0.00 | 0.00 | 0.00 | 45 | 1015.7 |
| 20260503214055 | 13 | 360 | 3.2 | 29.0 | 0.00 | 0.00 | 0.00 | 46 | 1015.7 |
| 20260503213555 | 14 | 360 | 3.2 | 19.3 | 0.00 | 0.00 | 0.00 | 46 | 1015.6 |
| 20260503213107 | 14 | 360 | 3.2 | 25.7 | 0.00 | 0.00 | 0.00 | 47 | 1015.6 |
| 20260503212558 | 14 | 360 | 6.4 | 27.4 | 0.00 | 0.00 | 0.00 | 44 | 1015.6 |
| 20260503212053 | 14 | 360 | 8.0 | 25.7 | 0.00 | 0.00 | 0.00 | 43 | 1015.7 |
| 20260503211553 | 14 | 360 | 4.8 | 19.3 | 0.00 | 0.00 | 0.00 | 43 | 1015.7 |
| 20260503211052 | 14 | 360 | 4.8 | 22.5 | 0.00 | 0.00 | 0.00 | 43 | 1015.8 |
| 20260503210552 | 14 | 360 | 6.4 | 24.1 | 0.00 | 0.00 | 0.00 | 42 | 1015.9 |
| 20260503205552 | 14 | 360 | 9.7 | 37.0 | 0.00 | 0.00 | 0.00 | 41 | 1015.8 |
| 20260503205051 | 14 | 360 | 6.4 | 37.0 | 0.00 | 0.00 | 0.00 | 43 | 1015.9 |
| 20260503204553 | 14 | 360 | 11.3 | 29.0 | 0.00 | 0.00 | 0.00 | 43 | 1016.1 |
| 20260503204053 | 15 | 360 | 0.0 | 17.7 | 0.00 | 0.00 | 0.00 | 44 | 1016.2 |
| 20260503203550 | 15 | 360 | 4.8 | 24.1 | 0.00 | 0.00 | 0.00 | 42 | 1016.2 |
| 20260503203055 | 15 | 360 | 9.7 | 25.7 | 0.00 | 0.00 | 0.00 | 41 | 1016.3 |
| 20260503202550 | 15 | 360 | 12.9 | 25.7 | 0.00 | 0.00 | 0.00 | 43 | 1016.4 |
| 20260503202049 | 15 | 360 | 1.6 | 24.1 | 0.00 | 0.00 | 0.00 | 44 | 1016.4 |
| 20260503201548 | 15 | 360 | 8.0 | 24.1 | 0.00 | 0.00 | 0.00 | 41 | 1016.4 |
| 20260503201048 | 15 | 360 | 4.8 | 22.5 | 0.00 | 0.00 | 0.00 | 44 | 1016.5 |
| 20260503200552 | 15 | 360 | 6.4 | 20.9 | 0.00 | 0.00 | 0.00 | 44 | 1016.5 |
| 20260503200050 | 15 | 360 | 8.0 | 24.1 | 0.00 | 0.00 | 0.00 | 43 | 1016.6 |
| 20260503195548 | 15 | 360 | 1.6 | 24.1 | 0.00 | 0.00 | 0.00 | 43 | 1016.5 |
| 20260503195046 | 15 | 360 | 0.0 | 17.7 | 0.00 | 0.00 | 0.00 | 45 | 1016.5 |
| 20260503194546 | 15 | 360 | 4.8 | 29.0 | 0.00 | 0.00 | 0.00 | 43 | 1016.6 |
| 20260503194046 | 15 | 360 | 12.9 | 29.0 | 0.00 | 0.00 | 0.00 | 43 | 1016.7 |
| 20260503193547 | 15 | 360 | 0.0 | 14.5 | 0.00 | 0.00 | 0.00 | 46 | 1016.7 |
| 20260503193049 | 15 | 360 | 0.0 | 1.6 | 0.00 | 0.00 | 0.00 | 45 | 1016.8 |
| 20260503192544 | 15 | 360 | 0.0 | 1.6 | 0.00 | 0.00 | 0.00 | 45 | 1016.8 |
| 20260503192044 | 15 | 360 | 0.0 | 24.1 | 0.00 | 0.00 | 0.00 | 43 | 1016.9 |
| 20260503191543 | 15 | 360 | 6.4 | 24.1 | 0.00 | 0.00 | 0.00 | 44 | 1017.1 |
| 20260503191044 | 15 | 360 | 1.6 | 33.8 | 0.00 | 0.00 | 0.00 | 45 | 1017.2 |
| 20260503190542 | 15 | 360 | 4.8 | 33.8 | 0.00 | 0.00 | 0.00 | 43 | 1017.4 |
| 20260503190047 | 16 | 360 | 9.7 | 30.6 | 0.00 | 0.00 | 0.00 | 40 | 1017.4 |
| 20260503185540 | 16 | 360 | 0.0 | 19.3 | 0.00 | 0.00 | 0.00 | 46 | 1017.3 |
| 20260503185039 | 15 | 360 | 4.8 | 20.9 | 0.00 | 0.00 | 0.00 | 43 | 1017.6 |
| 20260503184549 | 15 | 360 | 4.8 | 17.7 | 0.00 | 0.00 | 0.00 | 45 | 1017.6 |
| 20260503184038 | 15 | 360 | 3.2 | 20.9 | 0.00 | 0.00 | 0.00 | 42 | 1017.7 |
| 20260503183538 | 15 | 360 | 8.0 | 20.9 | 0.00 | 0.00 | 0.00 | 45 | 1017.8 |
| 20260503183052 | 15 | 360 | 9.7 | 22.5 | 0.00 | 0.00 | 0.00 | 43 | 1017.9 |
| 20260503182537 | 15 | 360 | 9.7 | 24.1 | 0.00 | 0.00 | 0.00 | 42 | 1017.9 |
| 20260503182036 | 15 | 360 | 1.6 | 24.1 | 0.00 | 0.00 | 0.00 | 45 | 1018.0 |
| 20260503181539 | 15 | 360 | 0.0 | 27.4 | 0.00 | 0.00 | 0.00 | 47 | 1018.1 |
| 20260503181035 | 16 | 360 | 1.6 | 32.2 | 0.00 | 0.00 | 0.00 | 50 | 1018.0 |
| 20260503180534 | 15 | 360 | 3.2 | 32.2 | 0.00 | 0.00 | 0.00 | 49 | 1018.2 |
| 20260503180034 | 15 | 360 | 8.0 | 22.5 | 0.00 | 0.00 | 0.00 | 44 | 1018.3 |
| 20260503175534 | 15 | 360 | 0.0 | 9.7 | 0.00 | 0.00 | 0.00 | 44 | 1018.3 |
| 20260503175034 | 15 | 360 | 0.0 | 24.1 | 0.00 | 0.00 | 0.00 | 52 | 1018.4 |
| 20260503174533 | 15 | 360 | 4.8 | 24.1 | 0.00 | 0.00 | 0.00 | 45 | 1018.5 |
| 20260503174032 | 15 | 360 | 9.7 | 24.1 | 0.00 | 0.00 | 0.00 | 44 | 1018.6 |
| 20260503173532 | 15 | 360 | 0.0 | 17.7 | 0.00 | 0.00 | 0.00 | 52 | 1018.6 |
| 20260503173031 | 15 | 360 | 3.2 | 20.9 | 0.00 | 0.00 | 0.00 | 47 | 1018.7 |
| 20260503172531 | 15 | 360 | 3.2 | 20.9 | 0.00 | 0.00 | 0.00 | 51 | 1018.8 |
| 20260503172029 | 15 | 360 | 0.0 | 17.7 | 0.00 | 0.00 | 0.00 | 47 | 1018.9 |
| 20260503171528 | 15 | 360 | 1.6 | 19.3 | 0.00 | 0.00 | 0.00 | 45 | 1019.0 |
| 20260503171029 | 15 | 360 | 3.2 | 19.3 | 0.00 | 0.00 | 0.00 | 49 | 1019.0 |
| 20260503170526 | 15 | 360 | 1.6 | 17.7 | 0.00 | 0.00 | 0.00 | 48 | 1019.1 |